| time (UTC) | temp C | wind direction | speed KPH | gust KPH | rain 1hr cm | rain 24hr cm | rain mn cm | humidity % | barometer mb |
| 20260506165602 | -17 | 355 | 3.2 | 14.5 | 0.00 | 0.00 | 0.00 | 1013.0 | |
| 20260506165101 | 13 | 31 | 14.5 | 14.5 | 0.00 | 0.00 | 0.00 | 64 | 1013.0 |
| 20260506164603 | 13 | 341 | 9.7 | 14.5 | 0.00 | 0.00 | 0.00 | 64 | 1012.9 |
| 20260506164101 | 13 | 354 | 1.6 | 3.2 | 0.00 | 0.00 | 0.00 | 64 | 1013.0 |
| 20260506163601 | 12 | 3 | 3.2 | 6.4 | 0.00 | 0.00 | 0.00 | 65 | 1013.1 |
| 20260506163101 | 12 | 34 | 6.4 | 11.3 | 0.00 | 0.00 | 0.00 | 65 | 1013.1 |
| 20260506162603 | -17 | 17 | 9.7 | 11.3 | 0.00 | 0.00 | 0.00 | 1013.1 | |
| 20260506162354 | -17 | 34 | 4.8 | 14.5 | 0.00 | 0.00 | 0.00 | 1013.1 | |
| 20260506161601 | -17 | 0 | 8.0 | 14.5 | 0.00 | 0.00 | 0.00 | 1013.1 | |
| 20260506161101 | 12 | 347 | 0.0 | 0.0 | 0.00 | 0.00 | 0.00 | 65 | 1013.1 |
| 20260506160601 | 12 | 0 | 4.8 | 16.1 | 0.00 | 0.00 | 0.00 | 65 | 1013.1 |
| 20260506160100 | 12 | 0 | 4.8 | 16.1 | 0.00 | 0.00 | 0.00 | 65 | 1013.1 |
| 20260506155601 | 12 | 0 | 9.7 | 11.3 | 0.00 | 0.00 | 0.00 | 68 | 1013.2 |
| 20260506155101 | 12 | 38 | 1.6 | 8.0 | 0.00 | 0.00 | 0.00 | 66 | 1013.1 |
| 20260506154602 | 12 | 0 | 4.8 | 8.0 | 0.00 | 0.00 | 0.00 | 66 | 1013.3 |
| 20260506154101 | 12 | 11 | 6.4 | 8.0 | 0.00 | 0.00 | 0.00 | 66 | 1013.3 |
| 20260506153602 | 12 | 341 | 1.6 | 1.6 | 0.00 | 0.00 | 0.00 | 64 | 1013.3 |
| 20260506153101 | 13 | 10 | 0.0 | 6.4 | 0.00 | 0.00 | 0.00 | 64 | 1013.2 |
| 20260506152602 | 13 | 38 | 6.4 | 6.4 | 0.00 | 0.00 | 0.00 | 64 | 1013.3 |
| 20260506152101 | 13 | 0 | 0.0 | 1.6 | 0.00 | 0.00 | 0.00 | 65 | 1013.3 |
| 20260506151844 | 13 | 0 | 0.0 | 3.2 | 0.00 | 0.00 | 0.00 | 65 | 1013.3 |
| 20260506151059 | 13 | 337 | 3.2 | 3.2 | 0.00 | 0.00 | 0.00 | 69 | 1013.2 |
| 20260506150831 | 13 | 14 | 3.2 | 9.7 | 0.00 | 0.00 | 0.00 | 69 | 1013.3 |
| 20260506150053 | -17 | 0 | 9.7 | 9.7 | 0.00 | 0.00 | 0.00 | 1013.3 | |
| 20260506145543 | 13 | 314 | 1.6 | 9.7 | 0.00 | 0.00 | 0.00 | 69 | 1013.2 |
| 20260506145043 | 13 | 0 | 8.0 | 9.7 | 0.00 | 0.00 | 0.00 | 69 | 1013.2 |
| 20260506144542 | 13 | 357 | 6.4 | 6.4 | 0.00 | 0.00 | 0.00 | 69 | 1013.2 |
| 20260506144043 | 13 | 357 | 6.4 | 6.4 | 0.00 | 0.00 | 0.00 | 69 | 1013.2 |
| 20260506143824 | -17 | 10 | 4.8 | 4.8 | 0.00 | 0.00 | 0.00 | 1013.2 | |
| 20260506143054 | 12 | 52 | 6.4 | 9.7 | 0.00 | 0.00 | 0.00 | 67 | 1013.2 |
| 20260506142541 | 12 | 52 | 6.4 | 9.7 | 0.00 | 0.00 | 0.00 | 67 | 1013.2 |
| 20260506142050 | 13 | 21 | 0.0 | 9.7 | 0.00 | 0.00 | 0.00 | 67 | 1013.2 |
| 20260506141541 | 13 | 14 | 4.8 | 9.7 | 0.00 | 0.00 | 0.00 | 67 | 1013.3 |
| 20260506141040 | -17 | 39 | 4.8 | 4.8 | 0.00 | 0.00 | 0.00 | 1013.3 | |
| 20260506140833 | 13 | 0 | 8.0 | 8.0 | 0.00 | 0.00 | 0.00 | 69 | 1013.2 |
| 20260506140052 | 13 | 0 | 8.0 | 9.7 | 0.00 | 0.00 | 0.00 | 69 | 1013.2 |
| 20260506135536 | 13 | 333 | 1.6 | 9.7 | 0.00 | 0.00 | 0.00 | 69 | 1013.3 |
| 20260506135037 | 13 | 45 | 1.6 | 8.0 | 0.00 | 0.00 | 0.00 | 69 | 1013.2 |
| 20260506134535 | 13 | 0.0 | 0.0 | 0.00 | 0.00 | 0.00 | 70 | 1013.3 | |
| 20260506134036 | 13 | 28 | 3.2 | 3.2 | 0.00 | 0.00 | 0.00 | 70 | 1013.3 |
| 20260506133531 | 12 | 28 | 3.2 | 3.2 | 0.00 | 0.00 | 0.00 | 73 | 1013.4 |
| 20260506133042 | 12 | 78 | 9.7 | 9.7 | 0.00 | 0.00 | 0.00 | 73 | 1013.4 |
| 20260506132531 | 12 | 78 | 9.7 | 11.3 | 0.00 | 0.00 | 0.00 | 73 | 1013.3 |
| 20260506132034 | 12 | 334 | 11.3 | 11.3 | 0.00 | 0.00 | 0.00 | 73 | 1013.3 |
| 20260506131530 | 12 | 0.0 | 0.0 | 0.00 | 0.00 | 0.00 | 73 | 1013.4 | |
| 20260506131028 | 12 | 0 | 6.4 | 9.7 | 0.00 | 0.00 | 0.00 | 73 | 1013.4 |
| 20260506130518 | 12 | 0 | 6.4 | 11.3 | 0.00 | 0.00 | 0.00 | 73 | 1013.5 |
| 20260506130044 | 12 | 48 | 6.4 | 11.3 | 0.00 | 0.00 | 0.00 | 79 | 1013.6 |
| 20260506125512 | 12 | 62 | 6.4 | 14.5 | 0.00 | 0.00 | 0.00 | 79 | 1013.5 |
| 20260506125005 | 12 | 55 | 9.7 | 14.5 | 0.00 | 0.00 | 0.00 | 79 | 1013.6 |
| 20260506124516 | -17 | 56 | 4.8 | 4.8 | 0.00 | 0.00 | 0.00 | 1013.5 | |
| 20260506124322 | -17 | 32 | 4.8 | 4.8 | 0.00 | 0.00 | 0.00 | 1013.5 | |
| 20260506123509 | -17 | 17 | 1.6 | 3.2 | 0.00 | 0.00 | 0.00 | 1013.5 | |
| 20260506123004 | -17 | 348 | 3.2 | 6.4 | 0.00 | 0.00 | 0.00 | 1013.6 | |
| 20260506122510 | 11 | 14 | 4.8 | 6.4 | 0.00 | 0.00 | 0.00 | 78 | 1013.6 |
| 20260506122005 | 11 | 21 | 1.6 | 8.0 | 0.00 | 0.00 | 0.00 | 78 | 1013.6 |
| 20260506121456 | 11 | 23 | 3.2 | 9.7 | 0.00 | 0.00 | 0.00 | 77 | 1013.7 |
| 20260506121324 | 11 | 350 | 3.2 | 11.3 | 0.00 | 0.00 | 0.00 | 77 | 1013.6 |
| 20260506120805 | 11 | 0 | 1.6 | 11.3 | 0.00 | 0.00 | 0.00 | 75 | 1013.6 |
| 20260506115955 | 11 | 7 | 6.4 | 11.3 | 0.00 | 0.00 | 0.00 | 75 | 1013.6 |
| 20260506115757 | 11 | 37 | 3.2 | 9.7 | 0.00 | 0.00 | 0.00 | 77 | 1013.6 |
| 20260506114953 | 11 | 338 | 8.0 | 8.0 | 0.00 | 0.00 | 0.00 | 77 | 1013.6 |
| 20260506114450 | 11 | 30 | 3.2 | 8.0 | 0.00 | 0.00 | 0.00 | 77 | 1013.6 |
| 20260506113951 | 11 | 52 | 3.2 | 8.0 | 0.00 | 0.00 | 0.00 | 77 | 1013.6 |
| 20260506113450 | 11 | 18 | 3.2 | 8.0 | 0.00 | 0.00 | 0.00 | 74 | 1013.7 |
| 20260506112948 | 11 | 344 | 8.0 | 8.0 | 0.00 | 0.00 | 0.00 | 74 | 1013.6 |
| 20260506112746 | 11 | 0 | 6.4 | 6.4 | 0.00 | 0.00 | 0.00 | 74 | 1013.7 |
| 20260506111948 | 11 | 66 | 3.2 | 11.3 | 0.00 | 0.00 | 0.00 | 74 | 1013.7 |
| 20260506111448 | -17 | 24 | 4.8 | 11.3 | 0.00 | 0.00 | 0.00 | 1013.6 | |
| 20260506111106 | 12 | 56 | 8.0 | 16.1 | 0.00 | 0.00 | 0.00 | 74 | 1013.6 |
| 20260506111018 | 12 | 39 | 6.4 | 16.1 | 0.00 | 0.00 | 0.00 | 74 | 1013.6 |
| 20260506105938 | 12 | 42 | 6.4 | 19.3 | 0.00 | 0.00 | 0.00 | 78 | 1013.6 |
| 20260506105440 | 12 | 73 | 14.5 | 19.3 | 0.00 | 0.00 | 0.00 | 78 | 1013.7 |
| 20260506104940 | 11 | 61 | 11.3 | 14.5 | 0.00 | 0.00 | 0.00 | 81 | 1013.6 |
| 20260506104440 | 11 | 340 | 9.7 | 9.7 | 0.00 | 0.00 | 0.00 | 81 | 1013.6 |
| 20260506104306 | -17 | 7 | 3.2 | 9.7 | 0.00 | 0.00 | 0.00 | 1013.7 | |
| 20260506103441 | -17 | 0 | 9.7 | 16.1 | 0.00 | 0.00 | 0.00 | 1013.7 | |
| 20260506103317 | -17 | 52 | 11.3 | 16.1 | 0.00 | 0.00 | 0.00 | 1013.7 | |
| 20260506102440 | -17 | 51 | 11.3 | 11.3 | 0.00 | 0.00 | 0.00 | 1013.6 | |
| 20260506101941 | 10 | 48 | 4.8 | 14.5 | 0.00 | 0.00 | 0.00 | 74 | 1013.5 |
| 20260506101440 | 10 | 30 | 6.4 | 22.5 | 0.00 | 0.00 | 0.00 | 74 | 1013.5 |
| 20260506100940 | 10 | 17 | 16.1 | 22.5 | 0.00 | 0.00 | 0.00 | 74 | 1013.6 |
| 20260506100440 | 10 | 27 | 16.1 | 20.9 | 0.00 | 0.00 | 0.00 | 74 | 1013.6 |
| 20260506095948 | 10 | 59 | 9.7 | 16.1 | 0.00 | 0.00 | 0.00 | 73 | 1013.5 |
| 20260506095442 | 10 | 51 | 3.2 | 16.1 | 0.00 | 0.00 | 0.00 | 72 | 1013.5 |
| 20260506094938 | 11 | 351 | 6.4 | 16.1 | 0.00 | 0.00 | 0.00 | 72 | 1013.4 |
| 20260506094438 | 11 | 348 | 6.4 | 6.4 | 0.00 | 0.00 | 0.00 | 72 | 1013.4 |
| 20260506093938 | 11 | 66 | 3.2 | 14.5 | 0.00 | 0.00 | 0.00 | 72 | 1013.5 |
| 20260506093439 | -17 | 0 | 9.7 | 14.5 | 0.00 | 0.00 | 0.00 | 1013.5 | |
| 20260506092939 | -17 | 23 | 6.4 | 8.0 | 0.00 | 0.00 | 0.00 | 1013.4 | |
| 20260506092438 | 11 | 23 | 6.4 | 19.3 | 0.00 | 0.00 | 0.00 | 74 | 1013.5 |
| 20260506091933 | 11 | 23 | 19.3 | 19.3 | 0.00 | 0.00 | 0.00 | 74 | 1013.4 |
| 20260506091433 | 11 | 55 | 9.7 | 19.3 | 0.00 | 0.00 | 0.00 | 74 | 1013.4 |
| 20260506090926 | 11 | 37 | 12.9 | 19.3 | 0.00 | 0.00 | 0.00 | 74 | 1013.4 |
| 20260506090423 | 11 | 31 | 6.4 | 6.4 | 0.00 | 0.00 | 0.00 | 73 | 1013.5 |
| 20260506085918 | 11 | 11 | 4.8 | 8.0 | 0.00 | 0.00 | 0.00 | 73 | 1013.4 |
| 20260506085417 | 11 | 14 | 8.0 | 22.5 | 0.00 | 0.00 | 0.00 | 74 | 1013.3 |
| 20260506084916 | 11 | 55 | 12.9 | 22.5 | 0.00 | 0.00 | 0.00 | 74 | 1013.3 |
| 20260506084416 | 10 | 13 | 12.9 | 17.7 | 0.00 | 0.00 | 0.00 | 74 | 1013.2 |
| 20260506083915 | 10 | 25 | 4.8 | 17.7 | 0.00 | 0.00 | 0.00 | 74 | 1013.2 |
| 20260506083414 | 10 | 3 | 9.7 | 22.5 | 0.00 | 0.00 | 0.00 | 75 | 1013.2 |
| 20260506082915 | 10 | 47 | 8.0 | 22.5 | 0.00 | 0.00 | 0.00 | 75 | 1013.3 |
| 20260506082708 | 10 | 30 | 8.0 | 22.5 | 0.00 | 0.00 | 0.00 | 75 | 1013.3 |
| 20260506081914 | 10 | 0 | 6.4 | 14.5 | 0.00 | 0.00 | 0.00 | 77 | 1013.3 |
| 20260506081408 | 10 | 34 | 8.0 | 16.1 | 0.00 | 0.00 | 0.00 | 77 | 1013.3 |
| 20260506080902 | 10 | 337 | 8.0 | 20.9 | 0.00 | 0.00 | 0.00 | 77 | 1013.3 |
| 20260506080405 | 9 | 71 | 8.0 | 20.9 | 0.00 | 0.00 | 0.00 | 77 | 1013.3 |
| 20260506073403 | 10 | 41 | 9.7 | 14.5 | 0.00 | 0.00 | 0.00 | 76 | 1013.2 |
| 20260506072902 | 10 | 42 | 6.4 | 14.5 | 0.00 | 0.00 | 0.00 | 76 | 1013.3 |
| 20260506072659 | 9 | 334 | 11.3 | 17.7 | 0.00 | 0.00 | 0.00 | 81 | 1013.3 |
| 20260506071903 | 9 | 28 | 8.0 | 17.7 | 0.00 | 0.00 | 0.00 | 81 | 1013.2 |
| 20260506071403 | -17 | 63 | 8.0 | 14.5 | 0.00 | 0.00 | 0.00 | 1013.2 | |
| 20260506070903 | -17 | 345 | 6.4 | 8.0 | 0.00 | 0.00 | 0.00 | 1013.2 | |
| 20260506070403 | -17 | 345 | 6.4 | 14.5 | 0.00 | 0.00 | 0.00 | 1013.2 | |
| 20260506061858 | 7 | 0 | 8.0 | 17.7 | 0.00 | 0.00 | 0.00 | 84 | 1013.0 |
| 20260506061356 | 7 | 58 | 8.0 | 14.5 | 0.00 | 0.00 | 0.00 | 85 | 1013.0 |
| 20260506060855 | 7 | 14 | 4.8 | 14.5 | 0.00 | 0.00 | 0.00 | 84 | 1013.0 |
| 20260506060355 | 7 | 0 | 4.8 | 11.3 | 0.00 | 0.00 | 0.00 | 85 | 1013.0 |
| 20260506051352 | 6 | 59 | 6.4 | 19.3 | 0.00 | 0.00 | 0.00 | 86 | 1012.7 |
| 20260506050852 | 6 | 47 | 4.8 | 17.7 | 0.00 | 0.00 | 0.00 | 86 | 1012.7 |
| 20260506050351 | 6 | 25 | 6.4 | 17.7 | 0.00 | 0.00 | 0.00 | 86 | 1012.8 |
| 20260506044852 | 6 | 0 | 6.4 | 16.1 | 0.00 | 0.00 | 0.00 | 86 | 1012.7 |
| 20260506044349 | 6 | 0 | 4.8 | 16.1 | 0.00 | 0.00 | 0.00 | 86 | 1012.7 |
| 20260506043850 | 6 | 344 | 4.8 | 11.3 | 0.00 | 0.00 | 0.00 | 85 | 1012.8 |
| 20260506043350 | 6 | 0 | 1.6 | 9.7 | 0.00 | 0.00 | 0.00 | 85 | 1012.7 |
| 20260506042851 | 6 | 78 | 3.2 | 9.7 | 0.00 | 0.00 | 0.00 | 85 | 1012.9 |
| 20260506042349 | 6 | 3 | 3.2 | 6.4 | 0.00 | 0.00 | 0.00 | 85 | 1012.8 |
| 20260506041854 | 6 | 28 | 1.6 | 9.7 | 0.00 | 0.00 | 0.00 | 85 | 1012.9 |
| 20260506041656 | 7 | 55 | 3.2 | 16.1 | 0.00 | 0.00 | 0.00 | 85 | 1012.9 |
| 20260506040852 | 7 | 32 | 4.8 | 16.1 | 0.00 | 0.00 | 0.00 | 85 | 1012.9 |
| 20260506040349 | 7 | 0 | 1.6 | 8.0 | 0.00 | 0.00 | 0.00 | 85 | 1012.9 |
| 20260506040233 | 7 | 52 | 3.2 | 14.5 | 0.00 | 0.00 | 0.00 | 85 | 1012.8 |
| 20260506035349 | 7 | 56 | 3.2 | 14.5 | 0.00 | 0.00 | 0.00 | 85 | 1012.8 |
| 20260506035033 | 7 | 42 | 6.4 | 9.7 | 0.00 | 0.00 | 0.00 | 85 | 1012.9 |
| 20260506034805 | 7 | 65 | 3.2 | 11.3 | 0.00 | 0.00 | 0.00 | 85 | 1012.8 |
| 20260506033349 | 7 | 49 | 3.2 | 11.3 | 0.00 | 0.00 | 0.00 | 84 | 1012.9 |
| 20260506032848 | 7 | 31 | 3.2 | 9.7 | 0.00 | 0.00 | 0.00 | 85 | 1012.9 |
| 20260506032348 | 7 | 49 | 3.2 | 11.3 | 0.00 | 0.00 | 0.00 | 84 | 1012.8 |
| 20260506031848 | 7 | 14 | 6.4 | 11.3 | 0.00 | 0.00 | 0.00 | 85 | 1012.8 |
| 20260506031348 | 7 | 0 | 6.4 | 14.5 | 0.00 | 0.00 | 0.00 | 85 | 1012.9 |
| 20260506030848 | 7 | 47 | 3.2 | 14.5 | 0.00 | 0.00 | 0.00 | 85 | 1012.9 |
| 20260506030654 | 7 | 56 | 1.6 | 11.3 | 0.00 | 0.00 | 0.00 | 84 | 1013.0 |
| 20260506025848 | 7 | 47 | 3.2 | 8.0 | 0.00 | 0.00 | 0.00 | 84 | 1013.0 |
| 20260506025349 | 7 | 3 | 3.2 | 11.3 | 0.00 | 0.00 | 0.00 | 84 | 1013.0 |
| 20260506024848 | 7 | 41 | 3.2 | 11.3 | 0.00 | 0.00 | 0.00 | 84 | 1013.0 |
| 20260506024348 | 7 | 0 | 4.8 | 9.7 | 0.00 | 0.00 | 0.00 | 84 | 1013.0 |
| 20260506023850 | 7 | 61 | 3.2 | 9.7 | 0.00 | 0.00 | 0.00 | 84 | 1013.0 |
| 20260506023349 | 7 | 45 | 3.2 | 17.7 | 0.00 | 0.00 | 0.00 | 84 | 1013.1 |
| 20260506023316 | 7 | 55 | 4.8 | 11.3 | 0.00 | 0.00 | 0.00 | 84 | 1013.1 |
| 20260506023312 | 7 | 58 | 3.2 | 17.7 | 0.00 | 0.00 | 0.00 | 84 | 1013.1 |
| 20260506021848 | 7 | 56 | 1.6 | 8.0 | 0.00 | 0.00 | 0.00 | 84 | 1013.2 |
| 20260506021350 | 7 | 0 | 4.8 | 14.5 | 0.00 | 0.00 | 0.00 | 84 | 1013.1 |
| 20260506020849 | 7 | 62 | 4.8 | 17.7 | 0.00 | 0.00 | 0.00 | 84 | 1013.1 |
| 20260506020348 | 7 | 25 | 8.0 | 17.7 | 0.00 | 0.00 | 0.00 | 83 | 1013.1 |
| 20260506015850 | 7 | 56 | 8.0 | 19.3 | 0.00 | 0.00 | 0.00 | 84 | 1013.1 |
| 20260506015349 | 7 | 23 | 6.4 | 19.3 | 0.00 | 0.00 | 0.00 | 83 | 1013.1 |
| 20260506015211 | 7 | 79 | 6.4 | 11.3 | 0.00 | 0.00 | 0.00 | 84 | 1013.1 |
| 20260506014348 | 8 | 63 | 6.4 | 16.1 | 0.00 | 0.00 | 0.00 | 84 | 1013.2 |
| 20260506013849 | 8 | 62 | 6.4 | 16.1 | 0.00 | 0.00 | 0.00 | 84 | 1013.1 |
| 20260506013346 | 8 | 65 | 6.4 | 14.5 | 0.00 | 0.00 | 0.00 | 84 | 1013.2 |
| 20260506012849 | 8 | 52 | 4.8 | 16.1 | 0.00 | 0.00 | 0.00 | 84 | 1013.3 |
| 20260506012653 | 8 | 41 | 8.0 | 16.1 | 0.00 | 0.00 | 0.00 | 84 | 1013.2 |
| 20260506011848 | 8 | 353 | 6.4 | 11.3 | 0.00 | 0.00 | 0.00 | 84 | 1013.2 |
| 20260506011351 | 8 | 63 | 6.4 | 11.3 | 0.00 | 0.00 | 0.00 | 85 | 1013.4 |
| 20260506010849 | 8 | 63 | 4.8 | 9.7 | 0.00 | 0.00 | 0.00 | 85 | 1013.3 |
| 20260506010349 | 8 | 23 | 4.8 | 14.5 | 0.00 | 0.00 | 0.00 | 85 | 1013.4 |
| 20260506005848 | 8 | 59 | 4.8 | 14.5 | 0.00 | 0.00 | 0.00 | 85 | 1013.3 |
| 20260506005345 | 8 | 58 | 8.0 | 14.5 | 0.00 | 0.00 | 0.00 | 85 | 1013.2 |
| 20260506004848 | 8 | 34 | 3.2 | 16.1 | 0.00 | 0.00 | 0.00 | 85 | 1013.2 |
| 20260506004347 | 8 | 38 | 8.0 | 16.1 | 0.00 | 0.00 | 0.00 | 84 | 1013.2 |
| 20260506003847 | 8 | 56 | 8.0 | 16.1 | 0.00 | 0.00 | 0.00 | 84 | 1013.2 |
| 20260506003347 | 8 | 11 | 4.8 | 22.5 | 0.00 | 0.00 | 0.00 | 84 | 1013.2 |
| 20260506003216 | 8 | 52 | 8.0 | 22.5 | 0.00 | 0.00 | 0.00 | 83 | 1013.2 |
| 20260506002346 | 8 | 58 | 6.4 | 17.7 | 0.00 | 0.00 | 0.00 | 83 | 1013.2 |
| 20260506001848 | 8 | 39 | 8.0 | 17.7 | 0.00 | 0.00 | 0.00 | 83 | 1013.2 |
| 20260506001345 | 8 | 51 | 9.7 | 17.7 | 0.00 | 0.00 | 0.00 | 84 | 1013.3 |
| 20260506000845 | 8 | 51 | 9.7 | 17.7 | 0.00 | 0.00 | 0.00 | 84 | 1013.3 |
| 20260506000341 | 8 | 71 | 9.7 | 16.1 | 0.00 | 0.00 | 0.00 | 84 | 1013.3 |
| 20260505235839 | 8 | 49 | 8.0 | 14.5 | 0.00 | 0.00 | 0.00 | 84 | 1013.2 |
| 20260505235339 | 8 | 32 | 8.0 | 14.5 | 0.00 | 0.00 | 0.00 | 85 | 1013.3 |
| 20260505234841 | 9 | 56 | 6.4 | 16.1 | 0.00 | 0.00 | 0.00 | 84 | 1013.4 |
| 20260505234339 | 9 | 54 | 4.8 | 16.1 | 0.00 | 0.00 | 0.00 | 85 | 1013.4 |
| 20260505233838 | 9 | 58 | 3.2 | 14.5 | 0.00 | 0.00 | 0.00 | 85 | 1013.4 |
| 20260505233339 | 9 | 62 | 6.4 | 14.5 | 0.00 | 0.00 | 0.00 | 85 | 1013.4 |
| 20260505232838 | 9 | 94 | 6.4 | 11.3 | 0.00 | 0.00 | 0.00 | 85 | 1013.3 |
| 20260505232338 | 9 | 34 | 4.8 | 14.5 | 0.00 | 0.00 | 0.00 | 85 | 1013.3 |
| 20260505231841 | 9 | 59 | 6.4 | 14.5 | 0.00 | 0.00 | 0.00 | 85 | 1013.3 |
| 20260505231645 | 9 | 351 | 4.8 | 17.7 | 0.00 | 0.00 | 0.00 | 85 | 1013.5 |
| 20260505230841 | 9 | 54 | 8.0 | 17.7 | 0.00 | 0.00 | 0.00 | 84 | 1013.5 |
| 20260505230353 | 9 | 44 | 4.8 | 16.1 | 0.00 | 0.00 | 0.00 | 84 | 1013.5 |
| 20260505225837 | 9 | 41 | 9.7 | 16.1 | 0.00 | 0.00 | 0.00 | 84 | 1013.5 |
| 20260505225340 | 9 | 78 | 6.4 | 16.1 | 0.00 | 0.00 | 0.00 | 84 | 1013.4 |
| 20260505225210 | 9 | 61 | 6.4 | 16.1 | 0.00 | 0.00 | 0.00 | 84 | 1013.4 |
| 20260505224337 | 9 | 44 | 8.0 | 17.7 | 0.00 | 0.00 | 0.00 | 84 | 1013.5 |
| 20260505223835 | 9 | 49 | 8.0 | 17.7 | 0.00 | 0.00 | 0.00 | 84 | 1013.4 |
| 20260505223649 | 9 | 48 | 8.0 | 17.7 | 0.00 | 0.00 | 0.00 | 84 | 1013.4 |
| 20260505222834 | 9 | 11 | 6.4 | 16.1 | 0.00 | 0.00 | 0.00 | 83 | 1013.5 |
| 20260505222335 | 9 | 48 | 8.0 | 20.9 | 0.00 | 0.00 | 0.00 | 83 | 1013.5 |
| 20260505221836 | 9 | 18 | 9.7 | 20.9 | 0.00 | 0.00 | 0.00 | 83 | 1013.4 |
| 20260505221335 | 9 | 44 | 11.3 | 22.5 | 0.00 | 0.00 | 0.00 | 82 | 1013.5 |
| 20260505220833 | 10 | 63 | 8.0 | 22.5 | 0.00 | 0.00 | 0.00 | 82 | 1013.5 |
| 20260505220651 | 10 | 39 | 9.7 | 19.3 | 0.00 | 0.00 | 0.00 | 82 | 1013.5 |
| 20260505220231 | 10 | 58 | 6.4 | 19.3 | 0.00 | 0.00 | 0.00 | 82 | 1013.5 |
| 20260505215331 | 10 | 56 | 9.7 | 20.9 | 0.00 | 0.00 | 0.00 | 81 | 1013.4 |
| 20260505214833 | 10 | 0 | 9.7 | 20.9 | 0.00 | 0.00 | 0.00 | 81 | 1013.3 |
| 20260505214333 | 10 | 47 | 8.0 | 16.1 | 0.00 | 0.00 | 0.00 | 81 | 1013.3 |
| 20260505213834 | 10 | 55 | 9.7 | 20.9 | 0.00 | 0.00 | 0.00 | 81 | 1013.3 |
| 20260505213332 | 10 | 58 | 9.7 | 20.9 | 0.00 | 0.00 | 0.00 | 81 | 1013.3 |
| 20260505212833 | 10 | 54 | 6.4 | 20.9 | 0.00 | 0.00 | 0.00 | 80 | 1013.3 |
| 20260505212331 | 10 | 354 | 11.3 | 20.9 | 0.00 | 0.00 | 0.00 | 80 | 1013.3 |
| 20260505211830 | 10 | 52 | 11.3 | 20.9 | 0.00 | 0.00 | 0.00 | 80 | 1013.3 |
| 20260505211329 | 10 | 32 | 8.0 | 19.3 | 0.00 | 0.00 | 0.00 | 80 | 1013.2 |
| 20260505210830 | 10 | 49 | 11.3 | 19.3 | 0.00 | 0.00 | 0.00 | 80 | 1013.3 |
| 20260505210330 | 10 | 54 | 8.0 | 20.9 | 0.00 | 0.00 | 0.00 | 80 | 1013.1 |
| 20260505205831 | 10 | 54 | 11.3 | 20.9 | 0.00 | 0.00 | 0.00 | 79 | 1013.2 |
| 20260505205330 | 10 | 38 | 9.7 | 20.9 | 0.00 | 0.00 | 0.00 | 79 | 1013.2 |
| 20260505204948 | 10 | 32 | 9.7 | 22.5 | 0.00 | 0.00 | 0.00 | 78 | 1013.0 |
| 20260505204919 | 10 | 62 | 11.3 | 20.9 | 0.00 | 0.00 | 0.00 | 79 | 1013.1 |
| 20260505203826 | 11 | 47 | 16.1 | 22.5 | 0.00 | 0.00 | 0.00 | 78 | 1013.0 |
| 20260505203326 | 11 | 62 | 12.9 | 22.5 | 0.00 | 0.00 | 0.00 | 78 | 1013.0 |
| 20260505202826 | 11 | 62 | 8.0 | 24.1 | 0.00 | 0.00 | 0.00 | 78 | 1013.0 |
| 20260505202324 | 11 | 79 | 9.7 | 24.1 | 0.00 | 0.00 | 0.00 | 77 | 1012.9 |
| 20260505201824 | 11 | 59 | 12.9 | 24.1 | 0.00 | 0.00 | 0.00 | 77 | 1012.9 |
| 20260505201645 | 11 | 31 | 6.4 | 22.5 | 0.00 | 0.00 | 0.00 | 76 | 1012.9 |
| 20260505200826 | 11 | 55 | 9.7 | 22.5 | 0.00 | 0.00 | 0.00 | 76 | 1012.9 |
| 20260505200322 | 11 | 54 | 8.0 | 19.3 | 0.00 | 0.00 | 0.00 | 76 | 1012.8 |
| 20260505195828 | 11 | 56 | 9.7 | 17.7 | 0.00 | 0.00 | 0.00 | 75 | 1012.7 |
| 20260505195323 | 11 | 65 | 4.8 | 16.1 | 0.00 | 0.00 | 0.00 | 75 | 1012.5 |
| 20260505194822 | 11 | 30 | 6.4 | 14.5 | 0.00 | 0.00 | 0.00 | 75 | 1012.6 |
| 20260505194323 | 11 | 39 | 6.4 | 19.3 | 0.00 | 0.00 | 0.00 | 74 | 1012.5 |
| 20260505193824 | 11 | 39 | 8.0 | 22.5 | 0.00 | 0.00 | 0.00 | 74 | 1012.4 |
| 20260505193522 | 12 | 63 | 8.0 | 19.3 | 0.00 | 0.00 | 0.00 | 73 | 1012.3 |
| 20260505193435 | 12 | 55 | 6.4 | 22.5 | 0.00 | 0.00 | 0.00 | 73 | 1012.4 |
| 20260505192321 | 12 | 41 | 11.3 | 22.5 | 0.00 | 0.00 | 0.00 | 73 | 1012.2 |
| 20260505191820 | 12 | 44 | 12.9 | 22.5 | 0.00 | 0.00 | 0.00 | 73 | 1012.2 |
| 20260505191322 | 12 | 41 | 11.3 | 24.1 | 0.00 | 0.00 | 0.00 | 73 | 1012.1 |
| 20260505190823 | 12 | 42 | 11.3 | 24.1 | 0.00 | 0.00 | 0.00 | 74 | 1012.1 |
| 20260505190320 | 12 | 49 | 11.3 | 20.9 | 0.00 | 0.00 | 0.00 | 74 | 1012.0 |
| 20260505185822 | 12 | 56 | 9.7 | 22.5 | 0.00 | 0.00 | 0.00 | 74 | 1012.0 |
| 20260505185320 | 12 | 61 | 9.7 | 22.5 | 0.00 | 0.00 | 0.00 | 74 | 1012.0 |
| 20260505184820 | 12 | 62 | 11.3 | 20.9 | 0.00 | 0.00 | 0.00 | 74 | 1012.0 |
| 20260505184320 | 12 | 42 | 9.7 | 20.9 | 0.00 | 0.00 | 0.00 | 74 | 1012.0 |
| 20260505183826 | 12 | 51 | 11.3 | 22.5 | 0.00 | 0.00 | 0.00 | 75 | 1011.9 |
| 20260505183326 | 12 | 56 | 14.5 | 22.5 | 0.00 | 0.00 | 0.00 | 74 | 1011.9 |
| 20260505182826 | 12 | 58 | 9.7 | 17.7 | 0.00 | 0.00 | 0.00 | 75 | 1011.8 |
| 20260505182326 | 13 | 56 | 11.3 | 20.9 | 0.00 | 0.00 | 0.00 | 75 | 1011.8 |
| 20260505181818 | 13 | 34 | 8.0 | 20.9 | 0.00 | 0.00 | 0.00 | 74 | 1011.8 |
| 20260505181319 | 13 | 59 | 9.7 | 19.3 | 0.00 | 0.00 | 0.00 | 74 | 1011.7 |
| 20260505181202 | 13 | 71 | 8.0 | 19.3 | 0.00 | 0.00 | 0.00 | 74 | 1011.8 |
| 20260505180313 | 13 | 65 | 9.7 | 16.1 | 0.00 | 0.00 | 0.00 | 74 | 1011.7 |
| 20260505175811 | 13 | 59 | 4.8 | 14.5 | 0.00 | 0.00 | 0.00 | 74 | 1011.8 |
| 20260505175306 | 13 | 51 | 8.0 | 14.5 | 0.00 | 0.00 | 0.00 | 73 | 1011.7 |
| 20260505174809 | 13 | 51 | 4.8 | 14.5 | 0.00 | 0.00 | 0.00 | 73 | 1011.7 |
| 20260505174303 | 13 | 48 | 6.4 | 14.5 | 0.00 | 0.00 | 0.00 | 73 | 1011.7 |
| 20260505173802 | 13 | 51 | 4.8 | 11.3 | 0.00 | 0.00 | 0.00 | 71 | 1011.8 |
| 20260505173300 | 13 | 38 | 6.4 | 11.3 | 0.00 | 0.00 | 0.00 | 71 | 1011.7 |
| 20260505173159 | 13 | 65 | 4.8 | 8.0 | 0.00 | 0.00 | 0.00 | 70 | 1011.7 |
| 20260505172308 | 14 | 27 | 3.2 | 6.4 | 0.00 | 0.00 | 0.00 | 70 | 1011.6 |
| 20260505171804 | 14 | 45 | 3.2 | 3.2 | 0.00 | 0.00 | 0.00 | 70 | 1011.6 |
| 20260505171259 | 14 | 27 | 0.0 | 3.2 | 0.00 | 0.00 | 0.00 | 68 | 1011.7 |
| 20260505170758 | 14 | 28 | 3.2 | 3.2 | 0.00 | 0.00 | 0.00 | 68 | 1011.7 |
| 20260505170309 | -17 | 13 | 0.0 | 1.6 | 0.00 | 0.00 | 0.00 | 1011.7 | |
| 20260505165757 | 14 | 68 | 1.6 | 3.2 | 0.00 | 0.00 | 0.00 | 68 | 1011.7 |